Regional Weather Roundup
Issued by NWS Midland/Odessa, TX

Skip options and go directly to product.
Home | Oldest Version | Next Version | Current Version | All | Text Only | Save Text | Print | Product List | Glossary On

Skip product version selection by date and time.   
352
ASUS44 KMAF 181402
RWRMAF
MIDLAND AREA WEATHER ROUNDUP
NATIONAL WEATHER SERVICE MIDLAND TX
900 AM CDT FRI APR 18 2014

...IN SOUTHWEST TEXAS AND SOUTHEAST NEW MEXICO...

CITY           SKY/WX    TMP DP  RH WIND       PRES   REMARKS
ALPINE         MOSUNNY   52  47  82 N5        30.27R
ANDREWS        CLOUDY    50  48  91 E6        30.24R
ARTESIA        CLOUDY    48  46  93 SE6       30.22S FOG
BIG SPRING     CLOUDY    54  49  85 E6        30.27R
CARLSBAD       CLOUDY    51  49  92 E7        30.20S FOG
DRYDEN           N/A     63  58  83 E10       30.18R
FORT STOCKTON  CLOUDY    60  54  80 SE9       30.20R
GUAD PASS      CLOUDY    47  45  93 NE24      30.21R FOG     WCI  39
HOBBS          CLOUDY    48  48 100 SE7       30.24R FOG
MARFA          MOSUNNY   54  45  71 E6        30.23R
MIDLAND AIRPK  CLOUDY    54  50  87 E8        30.24R FOG
MIDLAND INTL   CLOUDY    53  50  89 E9        30.23R FOG
ODESSA         CLOUDY    54  50  86 E12       30.23R FOG
PECOS          PTSUNNY   58  49  73 E5        30.20S
PRESIDIO       FAIR      63  51  65 NE15G22   30.13R
SEMINOLE       CLOUDY    48  47  97 SE6       30.25R FOG
SNYDER         CLOUDY    49  47  92 CALM      30.26R
WINK           CLOUDY    57  50  77 E8        30.20R
$$
...OTHER STATIONS IN TEXAS...

CITY           SKY/WX    TMP DP  RH WIND       PRES   REMARKS
ABILENE        CLOUDY    51  49  92 CALM      30.25R FOG
AMARILLO       CLOUDY    43  39  86 S8        30.23S WCI  38
AUSTIN         CLOUDY    63  60  90 CALM      30.20R FOG
BROWNSVILLE    CLOUDY    70  67  90 NE9       30.12R
CORPUS CHRISTI PTSUNNY   67  60  78 NE10      30.16R
DALLAS FTW     PTSUNNY   60  53  77 N6        30.23S
DEL RIO        CLOUDY    63  62  97 E8        30.18R
EL PASO        PTSUNNY   57  42  57 N7        30.13R
HOUSTON INT    MOSUNNY   63  54  72 N9        30.19R
LUBBOCK        CLOUDY    45  40  82 SW5       30.24R HAZE
SAN ANGELO     CLOUDY    58  52  80 NE8       30.23R
SAN ANTONIO    MOSUNNY   65  60  84 NE6       30.19S
WACO           SUNNY     60  53  77 NE8       30.22R
WICHITA FALLS  NOT AVBL
$$
...OTHER LOCATIONS IN NEW MEXICO...

CITY           SKY/WX    TMP DP  RH WIND       PRES   REMARKS
ALAMAGORDO     MOSUNNY   46  25  42 SE3       30.15R
ALBUQUERQUE    MOSUNNY   48  27  44 N6        30.17R
CANNON AFB     CLOUDY    39  30  69 SW8       30.23R FOG     WCI  34
CLOVIS         CLOUDY    39  36  87 SW8       30.24F WCI  34
HOLLOMAN AFB   PTSUNNY   52  28  38 N3        30.14R
ROSWELL        CLOUDY    49  44  83 SE12      30.22R
RUIDOSO        SUNNY     39  27  60 W3        30.26R
SANTA FE       SUNNY     46  27  47 N3        30.21R
TRUTH OR CONSE PTSUNNY   56  22  26 NW5       30.14R
TUCUMCARI      PTSUNNY   44  37  76 SW7       30.19F
$$

USA.gov is the U.S. government's official web portal to all federal, state and local government web resources and services.